GW6924 Weather Reports


Display with metric or nautical units.
time (UTC)temp
F
wind
direction
speed
MPH
gust
MPH
rain 1hr
in
rain 24hr
in
rain mn
in
humidity
%
barometer
mb
20260503024609 73 270 1.0 2.0 0.00 0.14 0.14 88 1014.2
20260503024106 73 160 4.0 7.0 0.00 0.14 0.14 89 1013.9
20260503023603 73 157 3.0 6.0 0.00 0.14 0.14 88 1013.8
20260503023100 73 132 3.0 4.0 0.00 0.14 0.14 88 1014.0
20260503022555 74 109 2.0 3.0 0.60 0.13 0.13 89 1014.1
20260503022050 74 176 2.0 3.0 0.00 0.13 0.13 89 1014.5
20260503021548 74 155 1.0 2.0 0.00 0.13 0.13 88 1014.7
20260503021044 74 182 2.0 3.0 0.00 0.13 0.13 89 1014.8
20260503020542 74 118 2.0 3.0 0.00 0.13 0.13 90 1014.4
20260503020038 74 247 0.0 0.0 0.00 0.13 0.13 90 1014.8
20260503015535 74 168 3.0 6.0 0.00 0.13 0.13 89 1014.7
20260503015033 74 161 7.0 11.0 0.00 0.13 0.13 90 1014.5
20260503014528 74 172 5.0 7.0 0.00 0.13 0.13 91 1014.3
20260503014026 75 187 5.0 8.0 0.00 0.13 0.13 90 1014.5
20260503013523 75 188 5.0 8.0 0.00 0.13 0.13 91 1014.1
20260503013021 75 195 4.0 5.0 0.00 0.13 0.13 90 1014.2
20260503012519 75 163 3.0 5.0 0.00 0.13 0.13 91 1014.5
20260503012014 75 143 2.0 3.0 0.00 0.12 0.12 91 1014.2
20260503011511 75 154 3.0 6.0 0.00 0.12 0.12 90 1014.1
20260503011009 75 171 4.0 8.0 0.00 0.12 0.12 90 1014.3
20260503010505 75 158 3.0 4.0 0.00 0.12 0.12 89 1014.3
20260503010003 75 171 2.0 3.0 0.00 0.12 0.12 90 1014.3
20260503005459 75 164 2.0 3.0 0.00 0.12 0.12 90 1014.3
20260503004956 75 129 0.0 2.0 0.00 0.12 0.12 90 1014.2
20260503004453 75 135 3.0 4.0 0.00 0.12 0.12 90 1014.0
20260503003951 75 173 1.0 2.0 0.00 0.12 0.12 90 1014.0
20260503003447 75 45 0.0 0.0 0.00 0.12 0.12 89 1014.1
20260503002944 75 112 1.0 2.0 0.00 0.12 0.12 89 1014.0
20260503002441 75 135 0.0 0.0 0.00 0.12 0.12 89 1013.9
20260503001937 75 149 2.0 4.0 0.00 0.12 0.12 89 1014.0
20260503001434 74 120 2.0 3.0 0.00 0.12 0.12 88 1013.9
20260503000932 74 360 0.0 0.0 0.00 0.12 0.12 88 1013.8
20260503000430 74 360 0.0 0.0 0.00 0.12 0.12 87 1013.6
20260502235926 74 360 0.0 0.0 0.00 0.12 0.12 87 1013.8
20260502235423 75 315 0.0 0.0 0.00 0.12 0.12 87 1014.0
20260502234920 75 315 0.0 0.0 0.00 0.12 0.12 88 1013.8
20260502234417 75 315 0.0 0.0 0.00 0.12 0.12 87 1013.6
20260502233914 75 315 0.0 0.0 0.00 0.12 0.12 87 1013.6
20260502233409 75 19 2.0 3.0 0.00 0.12 0.12 88 1013.6
20260502232907 75 360 0.0 0.0 0.00 0.11 0.11 88 1014.0
20260502232403 75 315 0.0 0.0 0.00 0.11 0.11 88 1014.1
20260502231859 75 294 1.0 2.0 0.00 0.11 0.11 87 1014.1
20260502231357 75 319 1.0 2.0 0.00 0.11 0.11 87 1014.2
20260502230855 75 283 2.0 6.0 0.00 0.11 0.11 88 1014.3
20260502230353 75 273 0.0 2.0 0.00 0.11 0.11 88 1014.1
20260502225850 75 290 0.0 1.0 0.00 0.11 0.11 87 1014.0
20260502225346 75 297 2.0 4.0 0.00 0.11 0.11 88 1014.0
20260502224843 75 306 0.0 3.0 0.00 0.11 0.11 86 1013.7
20260502224339 75 334 1.0 3.0 0.00 0.11 0.11 87 1013.6
20260502223837 75 298 3.0 8.0 0.00 0.11 0.11 86 1013.6
20260502223335 75 294 2.0 6.0 0.00 0.11 0.11 85 1013.6
20260502222832 76 285 3.0 9.0 0.00 0.11 0.11 83 1013.4
20260502222330 78 273 1.0 2.0 0.00 0.11 0.11 81 1013.4
20260502221825 80 288 2.0 5.0 0.60 0.10 0.10 78 1013.1
20260502221322 81 318 3.0 6.0 1.20 0.00 0.00 78 1013.0
20260502220819 82 252 3.0 6.0 0.00 0.00 0.00 79 1012.6
20260502220314 82 231 6.0 10.0 0.00 0.00 0.00 79 1012.5
20260502215811 82 209 4.0 7.0 0.00 0.00 0.00 78 1012.5
20260502215309 82 232 5.0 8.0 0.00 0.00 0.00 78 1012.5
20260502214806 82 238 5.0 11.0 0.00 0.00 0.00 77 1012.5
20260502214302 82 247 4.0 6.0 0.00 0.00 0.00 78 1012.7
20260502213800 82 237 4.0 8.0 0.00 0.00 0.00 77 1012.7
20260502213257 83 265 3.0 7.0 0.00 0.00 0.00 77 1012.7
20260502212755 83 247 5.0 11.0 0.00 0.00 0.00 76 1012.6
20260502212253 83 221 3.0 5.0 0.00 0.00 0.00 75 1012.6
20260502211749 83 264 2.0 4.0 0.00 0.00 0.00 75 1012.4
20260502211246 84 241 4.0 8.0 0.00 0.00 0.00 74 1012.5
20260502210743 84 249 5.0 8.0 0.00 0.00 0.00 72 1012.3
20260502210241 84 247 6.0 9.0 0.00 0.00 0.00 72 1012.2
20260502205738 85 246 3.0 6.0 0.00 0.00 0.00 71 1012.2
20260502205234 86 233 4.0 8.0 0.00 0.00 0.00 69 1012.1
20260502204731 87 250 4.0 8.0 0.00 0.00 0.00 67 1012.0
20260502204228 88 256 1.0 4.0 0.00 0.00 0.00 66 1012.1
20260502203726 88 235 4.0 10.0 0.00 0.00 0.00 66 1012.3
20260502203224 88 237 3.0 5.0 0.00 0.00 0.00 67 1012.2
20260502202723 88 235 2.0 4.0 0.00 0.00 0.00 67 1012.3
20260502202222 88 265 3.0 7.0 0.00 0.00 0.00 67 1012.2
20260502201719 88 228 5.0 11.0 0.00 0.00 0.00 67 1012.2
20260502201216 88 238 2.0 6.0 0.00 0.00 0.00 66 1012.2
20260502200711 88 247 4.0 6.0 0.00 0.00 0.00 67 1012.4
20260502200208 89 254 3.0 6.0 0.00 0.00 0.00 67 1012.3
20260502195707 89 252 3.0 6.0 0.00 0.00 0.00 68 1012.4
20260502195203 89 259 3.0 6.0 0.00 0.00 0.00 68 1012.4
20260502194659 88 255 3.0 5.0 0.00 0.00 0.00 69 1012.4
20260502194156 88 249 3.0 6.0 0.00 0.00 0.00 69 1012.4
20260502193652 87 242 3.0 6.0 0.00 0.00 0.00 68 1012.2
20260502193150 87 248 5.0 9.0 0.00 0.00 0.00 68 1012.3
20260502192645 87 224 4.0 7.0 0.00 0.00 0.00 68 1012.3
20260502192143 88 242 2.0 3.0 0.00 0.00 0.00 70 1012.7
20260502191639 88 258 4.0 7.0 0.00 0.00 0.00 70 1012.7
20260502191137 88 250 5.0 9.0 0.00 0.00 0.00 70 1012.6
20260502190634 88 256 4.0 8.0 0.00 0.00 0.00 69 1012.7
20260502190132 88 226 4.0 6.0 0.00 0.00 0.00 71 1012.7
20260502185626 88 250 5.0 8.0 0.00 0.00 0.00 70 1012.8
20260502185123 87 250 3.0 4.0 0.00 0.00 0.00 71 1012.8
20260502184619 87 237 3.0 5.0 0.00 0.00 0.00 72 1012.9
20260502184115 87 250 5.0 8.0 0.00 0.00 0.00 72 1012.9
20260502183612 87 252 4.0 10.0 0.00 0.00 0.00 72 1013.0
20260502183108 87 249 6.0 11.0 0.00 0.00 0.00 73 1013.2
20260502182603 87 244 4.0 11.0 0.00 0.00 0.00 73 1013.4
20260502182059 87 258 2.0 6.0 0.00 0.00 0.00 72 1013.3
20260502181557 87 242 4.0 8.0 0.00 0.00 0.00 72 1013.4
20260502181055 87 242 5.0 9.0 0.00 0.00 0.00 73 1013.3
20260502180552 87 256 6.0 11.0 0.00 0.00 0.00 72 1013.4
20260502170511 88 232 4.0 8.0 0.00 0.00 0.00 73 1013.6
20260502163955 88 238 3.0 7.0 0.00 0.00 0.00 71 1013.6
20260502163450 88 231 5.0 11.0 0.00 0.00 0.00 71 1013.6
20260502162948 88 240 4.0 9.0 0.00 0.00 0.00 71 1013.3
20260502162445 88 245 2.0 6.0 0.00 0.00 0.00 70 1013.4
20260502161942 88 248 4.0 7.0 0.00 0.00 0.00 72 1013.5
20260502161438 88 216 3.0 7.0 0.00 0.00 0.00 71 1013.4
20260502160936 87 236 3.0 4.0 0.00 0.00 0.00 71 1013.5
20260502160434 87 238 5.0 7.0 0.00 0.00 0.00 71 1013.4
20260502151913 86 220 6.0 12.0 0.00 0.00 0.00 71 1013.1
20260502151409 86 224 7.0 11.0 0.00 0.00 0.00 71 1013.1
20260502150907 86 204 6.0 13.0 0.00 0.00 0.00 72 1013.0
20260502150403 85 196 6.0 9.0 0.00 0.00 0.00 71 1012.9
20260502130249 81 205 3.0 6.0 0.00 0.00 0.00 80 1012.6
20260502123734 79 156 5.0 7.0 0.00 0.00 0.00 83 1012.3
20260502123231 78 169 3.0 4.0 0.00 0.00 0.00 85 1012.3
20260502122728 78 185 3.0 4.0 0.00 0.00 0.00 86 1012.4
20260502122224 77 166 4.0 5.0 0.00 0.00 0.00 87 1012.3
20260502121723 77 152 3.0 5.0 0.00 0.00 0.00 88 1012.4
20260502121220 76 164 2.0 3.0 0.00 0.00 0.00 88 1012.3
20260502120716 75 168 4.0 5.0 0.00 0.00 0.00 88 1012.3
20260502120213 75 140 3.0 5.0 0.00 0.00 0.00 88 1012.3
20260502115711 75 155 4.0 6.0 0.00 0.00 0.00 89 1012.3
20260502115207 74 175 1.0 5.0 0.00 0.00 0.00 89 1012.3
20260502114703 74 148 3.0 4.0 0.00 0.00 0.00 90 1012.3
20260502114201 73 163 2.0 4.0 0.00 0.00 0.00 90 1012.2
20260502113658 73 155 3.0 4.0 0.00 0.00 0.00 91 1012.2
20260502113156 73 163 3.0 4.0 0.00 0.00 0.00 90 1012.3
20260502112653 72 191 1.0 4.0 0.00 0.00 0.00 91 1012.3
20260502112151 72 179 2.0 3.0 0.00 0.00 0.00 91 1012.4
20260502111648 72 159 2.0 2.0 0.00 0.00 0.00 91 1012.3
20260502111145 72 170 3.0 5.0 0.00 0.00 0.00 91 1012.3
20260502110643 72 146 2.0 3.0 0.00 0.00 0.00 91 1012.3
20260502110140 72 147 3.0 4.0 0.00 0.00 0.00 90 1012.4
20260502105637 71 171 3.0 4.0 0.00 0.00 0.00 90 1012.4
20260502105134 71 144 3.0 4.0 0.00 0.00 0.00 91 1012.3
20260502104631 71 180 2.0 3.0 0.00 0.00 0.00 90 1012.3
20260502104129 71 180 1.0 2.0 0.00 0.00 0.00 90 1012.2
20260502103626 71 180 0.0 0.0 0.00 0.00 0.00 89 1012.3
20260502103125 71 172 1.0 3.0 0.00 0.00 0.00 90 1012.4
20260502102621 71 151 0.0 1.0 0.00 0.00 0.00 90 1012.4
20260502102118 71 202 0.0 0.0 0.00 0.00 0.00 90 1012.4
20260502101616 71 202 0.0 0.0 0.00 0.00 0.00 89 1012.4
20260502101114 71 112 1.0 2.0 0.00 0.00 0.00 90 1012.5
20260502100612 71 109 1.0 2.0 0.00 0.00 0.00 89 1012.4
20260502100110 71 67 0.0 1.0 0.00 0.00 0.00 89 1012.3
20260502091044 71 168 2.0 3.0 0.00 0.00 0.00 89 1012.6
20260502090541 71 135 0.0 2.0 0.00 0.00 0.00 88 1012.6
20260502071435 70 225 0.0 0.0 0.00 0.00 0.00 89 1012.6
20260502070933 70 337 0.0 0.0 0.00 0.00 0.00 89 1012.6
20260502070431 70 337 0.0 0.0 0.00 0.00 0.00 88 1012.6
20260502065929 70 337 0.0 0.0 0.00 0.00 0.00 89 1012.6
20260502065428 70 337 0.0 0.0 0.00 0.00 0.00 88 1012.7
20260502064925 70 337 0.0 0.0 0.00 0.00 0.00 88 1012.7
20260502064423 70 337 0.0 0.0 0.00 0.00 0.00 87 1012.7
20260502063920 70 337 0.0 0.0 0.00 0.00 0.00 87 1012.7
20260502063417 70 337 0.0 0.0 0.00 0.00 0.00 87 1012.8
20260502062915 71 337 0.0 0.0 0.00 0.00 0.00 87 1012.9
20260502062412 71 337 0.0 0.0 0.00 0.00 0.00 87 1012.8
20260502061911 71 337 0.0 0.0 0.00 0.00 0.00 87 1012.9
20260502061408 71 337 0.0 0.0 0.00 0.00 0.00 86 1012.9
20260502060904 71 337 0.0 0.0 0.00 0.00 0.00 86 1012.9
20260502060404 71 337 0.0 0.0 0.00 0.00 0.00 86 1012.9
20260502055902 71 337 0.0 0.0 0.00 0.00 0.00 86 1012.9
20260502055400 71 337 0.0 0.0 0.00 0.00 0.00 85 1013.1
20260502054900 71 337 0.0 0.0 0.00 0.00 0.00 84 1013.1
20260502054356 72 337 0.0 0.0 0.00 0.00 0.00 85 1013.1
20260502053854 72 337 0.0 0.0 0.00 0.00 0.00 84 1013.2
20260502053351 72 337 0.0 0.0 0.00 0.00 0.00 83 1013.2
20260502052848 72 337 0.0 0.0 0.00 0.00 0.00 82 1013.2
20260502052347 73 315 0.0 0.0 0.00 0.00 0.00 81 1013.2
20260502051844 74 315 0.0 0.0 0.00 0.00 0.00 80 1013.4
20260502051343 74 315 0.0 0.0 0.00 0.00 0.00 79 1013.4
20260502050839 75 292 0.0 0.0 0.00 0.00 0.00 79 1013.4
20260502050335 75 270 0.0 0.0 0.00 0.00 0.00 78 1013.4
20260502045832 74 247 0.0 0.0 0.00 0.00 0.00 79 1013.5
20260502045329 74 247 0.0 0.0 0.00 0.00 0.00 80 1013.5
20260502044826 73 263 0.0 2.0 0.00 0.00 0.00 82 1013.6
20260502044322 73 258 1.0 3.0 0.00 0.00 0.00 83 1013.6
20260502043820 73 315 0.0 0.0 0.00 0.00 0.00 82 1013.6
20260502043317 73 292 0.0 0.0 0.00 0.00 0.00 81 1013.6
20260502042816 73 270 0.0 0.0 0.00 0.00 0.00 81 1013.5
20260502042314 73 270 0.0 0.0 0.00 0.00 0.00 81 1013.5
20260502041811 73 270 0.0 0.0 0.00 0.00 0.00 80 1013.4
20260502041309 73 270 0.0 0.0 0.00 0.00 0.00 80 1013.5
20260502040805 74 270 0.0 0.0 0.00 0.00 0.00 79 1013.5
20260502040302 74 270 0.0 0.0 0.00 0.00 0.00 78 1013.5
20260502035758 74 270 0.0 0.0 0.00 0.00 0.00 77 1013.5
20260502035255 74 270 0.0 0.0 0.00 0.00 0.00 77 1013.4
20260502034752 74 270 0.0 0.0 0.00 0.00 0.00 78 1013.5
20260502034251 74 270 0.0 0.0 0.00 0.00 0.00 77 1013.5
20260502033749 75 270 0.0 0.0 0.00 0.00 0.00 76 1013.5
20260502033246 75 270 0.0 0.0 0.00 0.00 0.00 76 1013.5
20260502032742 75 270 0.0 0.0 0.00 0.00 0.00 76 1013.5
20260502032238 75 270 1.0 2.0 0.00 0.00 0.00 76 1013.4
20260502031737 75 270 0.0 0.0 0.00 0.00 0.00 76 1013.5
20260502031234 75 247 0.0 2.0 0.00 0.00 0.00 76 1013.5
20260502030733 76 270 0.0 0.0 0.00 0.00 0.00 76 1013.5
20260502030230 76 270 0.0 0.0 0.00 0.00 0.00 76 1013.5
20260502025727 75 270 0.0 1.0 0.00 0.00 0.00 75 1013.6
20260502025225 75 246 0.0 1.0 0.00 0.00 0.00 75 1013.7